CZ-3B DEB, 40158

Orbit data source: Space-Track

CZ-3B DEB, 40158 is space debris in HEO originally from a launch on Sat, 04 Sep 2010 UTC launched from the Xichang Space Center, China (XSC). Debris objects in space refer to the collection of defunct objects orbiting the Earth. Examples of debris include non-operational satellites, rocket bodies, and fragments generated from explosions, collisions, or faulty payload assembly.

Loading next visibility...
Identifier
40158, 2010-042K
Orbit
HEO
Country
Flag of CNCN / PRC
Related business
Manufacturer
CALT
Mission
Spacecraft
Bus & Motor
Unknown
Mass
Unknown
Launch date (UTC)
2010-09-04 (16 years ago)
Launch vehicle
Unknown
Launch site
Xichang Space Center, China (XSC)
Object type
Payload
Rocket body
Debris
Shape & HBR
Unknown shape, 0.2 m
Radar Cross Section
Medium (>0.1 m² and <1 m²)

Expand to show TLE details & history
Last TLE update: 2 days ago

TLE from 2 days ago
0 CZ-3B DEB
1 40158U 10042K   26234.12803648 -.00000132  00000-0  00000-0 0  9991
2 40158  25.3721 197.8727 7335016 109.2179 358.4075  1.88759330 87994
Epoch: 2026-08-22T03:04Z
TLE epoch observation values (Epoch: 2026-08-22T03:04:22.351Z)
Latitude
25.44244°
Longitude
-84.41377°
Altitude
1,081.102 km
Speed
9.618 km/s
True Right ascension
19h 28m 29s
True Declination
25° 18' 54"
Sunlit
Object was in full shadow at epoch
Visualization orbit readout
Latitude
Unknown
Longitude
Unknown
Altitude
Unknown
Speed
Unknown
Apparent Right ascension
Unknown
Apparent Declination
Unknown
Sunlit
N/A
Visualization observer readout
Local Sidereal Time
02:29:43
Azimuth
Unknown
Elevation
Unknown
Doppler factor
Unknown
Orbital elements
Apogee altitude
41,570.74 km
Perigee altitude
993.243 km
Semi-major axis
27,660.129 km
Eccentricity
0.7335
Inclination
25.3721°
RAAN
197.8727°
Arg. of periapsis
109.2179°
True anomaly
344.90861°
Mean anomaly
358.4075°
Eccentric anomaly
354.05372°
Mean motion
0.4718 °/min
Orbital period
763.03 mins
BSTAR
0
Loading maneuver chart data...
Computing Atmospheric mass density...
Loading historical data...
Loading historical data...
Loading historical data...
Loading historical data...
Loading historical data...
Loading historical data...
Loading historical data...

Documentation

Showing up to 5 results
|